Location: Baili�vre
(50.0696°N, 4.2409°E)
Time: 10:16:55
(UTC+00:00)

Helios 1A - Pass Details

Date: 08 August 2020
Orbit: 588 x 599 km, 98.2° (Epoch: 06 September)

Event Time Altitude Azimuth Distance (km) Brightness Sun altitude
Exits shadow 23:49:47 73° 290° (WNW) 630 3.0 -24.2°
Drops below altitude 10° 23:53:48 10° 343° (NNW) 1,952 6.6 -24.1°
Sets 23:56:00 0° 345° (NNW) 2,860 7.7 -24.1°
